sat.trackr.live / text

‹ back to catalog

STARLINK-5291

NORAD 55273 · 2023-010E

PAYLOAD ACTIVE UNKNOWN

§ Identity

Operator
Country
US
Launch date
2023-01-19
Launch site
AFWTR
Launch vehicle
Mass (kg)
RCS (m²)

Purposes: comms

External: N2YO · Heavens-Above · Gunter

§ Orbital elements

Epoch: 2026-05-25T03:46:46.557120Z

Period
96.11 min
Inclination
69.9992°
Eccentricity
0.0003531
Mean motion
14.98331348 rev/d
Perigee alt
569.6 km
Apogee alt
574.5 km
Semi-major
6,950.2 km
B*
8.7172e-5
RAAN
211.5112°
Arg perigee
266.3875°
Mean anomaly
93.6881°
Rev number
18,424

§ Raw data

STARLINK-52911 55273U 23010E   26145.15748330  .00000947  00000+0  87172-4 0  99952 55273  69.9992 211.5112 0003531 266.3875  93.6881 14.98331348184248

JSON: /api/v1/satellites/55273 · /tle

For live sub-satellite position, see the globe view (requires WebGL).

§ Visibility from observer

Set your observer location to see the next 7 days of passes ≥ 10°. The values pass through the URL so the page stays shareable.

No JS? Fill the form by hand. The geolocation button needs JavaScript.